SCP
0 0 0 0 0 0 0 0 0 0 0 0 0 0 0 0 0 0 0 0 0 0 0 0 0 0 0 0 0 0 0 0 0 0 0 0 0 0 0 0 0 0 0
0 0 0 0 0 0 0 0 0 0 0 0 0 0 0 0 0 0 0 0 0 0 0 0 0 0 0 0 0 0 0 0 0 0 0 0 0 0 0 0 0 0 0
0 0 0 0 0 0 0 0 0 0 0 0 0 0 0 0 0 0 0 0 0 0 0 0 0 0 0 0 0 0 0 0 0 0 0 0 0 0 0 0 0 0 0
0 0 0 0 0 0 0 0 0 0 0 0 0 0 0 0 0 0 0 0 0 0 0 0 0 0 0 0 0 0 0 0 0 0 0 0 0 0 0 0 0 0 0
0 0 0 0 0 0 0 0 -0 0 0 0 0 0 0 0 0 0 0 0 0 0 0 0 0 0 0 0 0 0 0 0 0 0 0 0 0 0 0 0 0 0 0
0 0 0 0 0 0 0 0 0 0 0 0 0 0 0 0 0 0 0 0 0 0 0 0 0 0 0 0 0 0 0 0 0 0 0 0 0 0 0 0 0 0 0
0 0 0 0 0 0 0 0 0 0 0 0 0 0 0 0 0 0 0 0 0 0 0 0 0 0 0 0 0 0 0 0 0 0 0 0 0 0 0 0 0 0 0
0 0 0 0 0 0 0 0 0 0 0 0 0 0 0 0 0 0 0 0 0 0 0 0 0 0 0 0 0 0 0 0 0 0 0 0 0 0 0 0 0 0 0
0 0 0 0 0 0 0 0 0 0 0 0 0 0 0 0 0 0 0 0 0 0 0 0 0 0 0 0 0 0 0 0 0 0 0 0 0 0 0 0 0 0 0
0 0 0 0 0 0 0 0 0 0 0 0 0 0 0 0 0 0 0 0 0 0 0 0 0 0 0 0 0 0 0 0 0 0 0 0 0 0 0 0 0 0 0
0 0 0 0 0 0 0 0 0 0 0 0 0 0 0 0 0 0 0 0 0 0 0 0 0 0 0 0 0 0 0 0 0 0 0 0 0 0 0 0 0 0 0
0 0 0 0 0 0 0 0 0 0 0 0 0 0 0 0 0 0 0 0 0 0 0 0 0 0 0 0 0 0 0 0 0 0 0 0 0 0 0 0 0 0 0
0 0 0 0 0 0 0 0 0 0 0 0 0 0 0 0 0 0 0 0 0 0 0 0 0 0 0 0 0 0 0 0 0 0 0 0 0 0 0 0 0 0 0
0 0 0 0 0 0 0 0 0 0 0 0 0 0 0 0 0 0 0 0 0 0 0 0 0 0 0 0 0 0 0 0 0 0 0 0 0 0 0 0 0 0 0
0 0 0 0 0 0 0 0 0 0 0 0 0 0 0 0 0 0 0 0 0 0 0 0 0 0 0 0 0 0 0 0 0 0 0 0 0 0 0 0 0 0 0
0 0 0 0 0 0 0 0 0 0 0 0 0 0 0 0 0 0 0 0 0 0 0 0 0 0 0 0 0 0 0 0 0 0 0 0 0 0 0 0 0 0 0
0 0 0 0 0 0 0 0 0 0 0 0 0 0 0 0 0 0 0 0 0 0 0 0 0 0 0 0 0 0 0 0 0 0 0 0 0 0 0 0 0 0 0
0 0 0 0 0 0 0 0 0 0 0 0 0 0 0 0 0 0 0 0 0 0 0 0 0 0 0 0 0 0 0 0 0 0 0 0 0 0 0 0 0 0 0
0 0 0 0 0 0 0 0 0 0 0 0 0 0 0 0 0 0 0 0 0 0 0 0 0 0 0 0 0 0 0 0 0 0 0 0 0 0 0 0 0 0 0
0 0 0 0 0 0 0 0 0 0 0 0 0 0 0 0 0 0 0 0 0 0 0 0 0 0 0 0 0 0 0 0 0 0 0 0 0 0 0 0 0 0 0
0 0 0 0 0 0 0 0 0 0 0 0 0 0 0 0 0 0 0 0 0 0 0 0 0 0 0 0 0 0 0 0 0 0 0 0 0 0 0 0 0 0 0
0 0 0 0 0 0 0 0 0 0 0 0 0 0 0 0 0 0 0 0 0 0 0 0 0 0 0 0 0 0 0 0 0 0 0 0 0 0 0 0 0 0 0
0 0 0 0 0 0 0 0 0 0 0 0 0 0 0 0 0 0 0 0 0 0 0 0 0 0 0 0 0 0 0 0 0 0 0 0 0 0 0 0 0 0 0
0 0 0 0 0 0 0 0 0 0 0 0 0 0 0 0 0 0 0 0 0 0 0 0 0 0 0 0 0 0 0 0 0 0 0 0 0 0 0 0 0 0 0
0 0 0 0 0 0 0 0 0 0 0 0 0 0 0 0 0 0 0 0 0 0 0 0 0 0 0 0 0 0 0 0 0 0 0 0 0 0 0 0 0 0 0
0 0 0 0 0 0 0 0 0 0 0 0 0 0 0 0 0 0 0 0 0 0 0 0 0 0 0 0 0 0 0 0 0 0 0 0 0 0 0 0 0 0 0
Wind_Speed
10 10 9 9 9 8 8 9 8 7 7 7 6 5 5 5 3 3 3 3 4 5 6 8 9 8 6 6 6 5 6 5 5 3 1 1 2 4 4 5 5 6 6
11 10 11 10 9 9 10 10 9 9 8 8 7 6 6 6 5 4 4 4 4 4 5 6 8 7 9 7 6 7 6 7 5 5 2 2 3 5 6 6 5 5 6
11 11 12 12 11 11 12 11 10 10 10 9 8 8 8 7 6 6 6 5 5 5 5 6 6 7 9 7 8 7 6 6 5 4 3 2 2 5 6 6 7 6 6
12 12 13 13 13 13 12 11 11 11 10 10 10 10 9 8 7 7 6 6 6 6 6 6 5 6 8 8 8 9 7 7 6 5 4 4 3 6 6 7 6 4 5
12 13 14 14 13 13 12 11 11 10 11 11 10 9 9 8 8 8 7 7 6 6 6 6 6 7 9 8 7 8 9 7 7 6 6 5 5 7 7 5 7 7 5
12 14 14 14 14 14 13 12 11 11 10 9 10 10 9 8 11 13 10 7 7 7 6 6 6 8 9 11 12 12 12 11 10 8 7 8 8 8 7 9 9 7 5
13 14 14 14 14 14 15 13 11 11 10 9 10 10 10 11 14 14 13 8 7 7 7 6 6 5 7 7 9 12 13 14 13 10 10 10 11 11 12 12 10 6 5
14 14 14 14 15 14 13 13 11 9 8 8 9 9 9 10 14 14 14 9 7 8 8 7 7 6 6 7 6 8 9 11 12 11 10 9 10 12 12 11 11 9 8
15 15 15 14 15 14 14 12 10 8 8 8 6 8 9 10 12 13 12 6 7 8 8 8 8 8 9 10 8 8 8 8 9 11 11 10 13 17 15 12 12 12 9
15 15 15 14 14 14 13 11 9 8 8 8 8 7 8 9 11 12 11 5 6 6 6 6 9 9 9 10 9 9 10 8 7 8 9 11 13 18 21 16 15 14 11
16 15 15 13 12 12 10 9 8 7 7 7 7 7 7 9 10 12 11 6 6 6 5 5 5 9 10 11 10 8 9 8 8 8 8 9 11 12 12 10 10 13 12
15 15 14 12 10 9 8 7 6 6 6 6 5 6 5 6 8 9 11 11 9 6 6 5 5 7 8 9 8 8 10 9 7 7 8 9 10 11 10 9 8 6 4
14 14 12 11 9 8 7 6 5 4 4 4 4 5 4 4 5 10 10 11 12 7 6 7 7 6 5 6 8 9 10 8 8 8 9 8 8 10 10 8 8 8 7
14 13 11 10 9 7 6 4 4 3 3 4 4 5 4 3 4 4 4 5 8 8 6 5 5 5 4 4 5 7 7 7 8 8 8 8 9 10 9 9 9 8 7
13 11 10 8 8 7 6 4 4 4 4 4 4 4 4 4 5 7 5 5 5 6 5 4 3 3 4 4 4 5 5 6 6 7 9 9 10 9 8 8 8 8 6
11 10 8 7 6 5 5 5 3 3 3 6 6 5 4 5 4 5 7 7 7 8 6 4 5 5 5 5 5 5 5 6 7 8 9 10 11 10 9 8 9 9 8
11 10 7 6 6 5 5 4 4 3 4 4 1 4 5 4 4 4 4 6 7 9 5 5 5 5 5 5 5 5 5 6 7 8 9 10 10 11 10 10 9 8 7
11 10 8 6 5 5 4 3 2 2 1 1 3 3 1 2 3 4 7 6 4 5 4 5 5 5 5 5 5 6 6 7 7 8 9 10 10 10 10 10 9 9 8
10 7 6 5 5 4 4 3 2 1 0 0 1 2 3 3 3 5 6 3 4 5 5 4 4 5 5 5 5 6 8 8 9 9 9 10 10 10 9 9 8 11 9
8 12 9 5 4 4 3 2 2 1 1 0 0 0 1 1 2 2 3 2 3 4 4 4 4 5 5 5 6 6 8 8 10 9 9 9 9 9 10 10 9 9 8
8 8 10 6 4 3 3 3 2 1 0 0 0 0 1 1 2 3 3 3 3 3 4 4 4 5 5 6 6 8 9 9 9 9 9 9 10 9 9 9 9 8 8
7 6 5 5 4 3 3 2 2 1 1 1 0 0 1 1 1 2 2 2 2 2 3 4 4 4 5 7 7 8 9 9 9 9 9 9 9 9 9 9 8 8 8
7 6 5 4 3 4 3 2 2 1 1 1 1 0 0 0 0 1 1 1 1 3 4 4 5 5 5 6 7 8 9 9 9 10 10 10 9 9 9 9 10 10 9
7 6 5 5 4 3 3 2 2 2 2 2 2 1 1 1 1 1 1 2 2 3 3 4 5 7 8 7 6 6 7 9 10 10 13 11 10 9 8 8 9 10 9
7 6 5 4 4 4 3 3 2 2 2 2 2 2 2 2 2 2 2 2 3 3 4 4 4 6 9 10 9 8 10 11 10 10 10 10 11 10 9 9 8 8 8
8 8 6 5 4 4 3 3 3 3 2 2 2 2 2 2 2 3 3 3 3 3 3 3 5 6 9 8 10 11 11 11 11 11 9 9 10 9 9 7 9 8 9
Wind_Direction
270 266 263 260 254 248 244 246 246 247 246 248 254 260 264 261 248 234 240 260 251 241 226 217 220 209 202 199 193 192 199 202 229 237 199 139 123 118 97 86 78 75 83
275 273 270 265 260 252 248 246 242 241 241 240 241 243 250 253 243 232 239 237 245 254 247 229 225 215 210 201 194 196 198 200 211 227 205 169 147 140 121 104 88 81 83
284 281 279 275 268 259 252 246 240 237 238 236 232 234 239 242 240 239 234 229 227 237 247 245 235 219 215 205 199 198 196 195 201 209 208 174 140 141 126 109 101 93 90
288 284 281 277 273 268 260 251 242 235 233 233 230 229 232 236 237 238 238 233 226 224 227 237 243 232 225 212 203 201 191 189 194 202 205 183 154 146 139 135 121 107 99
291 288 284 281 278 275 268 258 250 239 234 230 228 227 228 229 233 230 229 232 227 226 226 229 233 240 241 225 208 198 187 189 191 199 200 185 169 163 157 146 133 119 92
291 289 288 286 284 280 274 265 255 245 236 226 224 224 225 228 230 227 220 222 224 227 234 236 238 237 244 237 222 204 190 189 193 195 200 195 182 165 152 149 143 140 130
291 291 290 287 285 282 279 273 261 251 239 227 223 219 223 228 231 235 231 220 224 227 230 236 247 237 219 229 225 214 206 202 196 195 201 197 181 168 159 159 160 146 133
295 292 291 288 285 283 279 271 263 255 244 234 227 220 220 229 229 233 236 228 226 231 232 233 240 249 232 215 214 215 213 210 208 207 211 200 180 168 165 155 142 115 104
298 295 292 288 286 284 279 270 263 254 245 233 223 219 220 231 231 230 229 218 222 232 234 232 233 243 236 214 209 212 214 215 211 209 205 190 167 157 150 139 140 138 137
304 300 296 291 286 283 280 273 264 251 242 235 230 222 221 229 233 230 220 207 217 229 236 235 233 236 232 212 212 208 211 206 188 186 186 175 164 158 157 159 156 153 147
308 305 303 299 293 287 283 277 268 257 244 231 230 227 224 228 235 233 217 199 208 219 228 233 234 233 229 217 216 214 209 189 180 175 169 163 159 160 162 159 159 159 157
313 311 310 306 301 299 293 285 276 259 243 232 228 232 230 229 230 233 223 211 205 209 218 225 230 230 227 218 215 210 189 178 175 169 164 161 159 160 159 154 144 134 120
318 316 315 313 310 303 295 288 279 257 239 225 218 226 232 227 226 228 226 220 212 208 217 219 223 223 218 216 216 198 181 181 175 171 166 159 154 151 144 135 123 110 98
321 321 320 320 317 312 303 289 271 251 232 222 219 224 229 230 226 218 214 214 211 210 213 212 208 205 204 203 193 192 192 183 176 169 157 145 141 144 145 144 144 141 126
323 323 324 324 323 321 316 306 285 255 233 220 221 216 216 230 230 211 199 200 194 193 179 176 177 181 193 192 188 188 182 173 171 155 150 147 147 146 145 146 147 149 148
324 325 324 323 324 323 323 326 330 311 263 241 240 233 233 233 237 217 211 205 187 168 164 177 188 195 194 191 184 178 173 169 163 153 151 151 151 150 146 149 155 161 159
322 320 318 322 323 324 326 328 332 358 42 41 336 236 229 230 228 202 177 167 168 166 178 187 190 196 194 191 181 171 166 159 154 152 150 149 147 147 149 153 159 162 160
322 319 321 316 317 318 319 320 318 325 349 28 36 41 125 184 176 159 148 141 157 183 195 193 194 190 190 188 179 168 158 152 153 151 147 145 145 147 150 155 160 161 157
322 318 316 316 318 318 320 326 331 331 353 42 52 47 71 104 125 154 161 173 177 189 199 201 194 186 183 180 172 161 154 152 151 149 145 144 145 147 150 154 155 152 152
322 324 331 323 324 331 336 340 343 350 3 14 85 120 132 141 151 169 195 202 198 198 197 196 185 174 170 163 156 151 148 146 148 146 144 144 146 150 152 153 155 159 163
321 322 331 333 332 332 333 339 345 355 353 336 299 227 202 204 197 201 207 215 216 202 189 184 171 164 160 152 149 148 145 144 147 146 146 147 148 149 150 152 155 158 155
321 319 322 326 329 337 342 353 1 8 23 42 356 225 226 233 210 204 220 228 213 190 178 166 158 157 155 152 150 149 147 147 148 146 145 147 147 148 149 151 153 155 155
325 327 332 333 336 346 2 16 17 19 24 20 19 35 138 249 242 204 208 168 147 149 151 150 144 143 146 150 154 154 153 153 152 150 148 148 148 150 152 154 157 158 163
329 331 335 339 346 355 1 4 8 23 33 29 28 24 28 19 28 52 55 73 103 118 125 131 135 141 146 148 154 156 152 149 150 153 151 151 152 153 155 158 162 167 169
340 342 345 347 349 355 2 9 18 36 47 44 33 25 26 31 40 48 52 69 91 107 119 127 134 142 151 155 156 149 143 142 146 148 149 150 153 156 160 162 163 164 164
351 353 353 353 356 2 11 18 26 36 44 44 50 43 27 23 35 48 56 70 82 89 98 112 125 135 143 148 146 140 139 142 144 145 148 149 152 158 161 163 166 169 170